Temp_Advection
nan nan nan nan nan nan nan nan nan nan nan nan nan nan nan nan nan nan nan nan nan nan nan nan nan nan nan nan nan nan nan nan nan nan nan nan nan nan nan nan nan nan nan nan nan nan nan nan nan nan nan nan nan nan
nan -0 -0 -0 0 0 1 0 -0 -0 -0 -0 -0 -0 -0 -1 -0 -0 0 -1 -0 -0 -1 -1 -1 -1 -0 0 1 -0 -0 -0 -0 -0 -0 -0 0 -0 0 -0 -0 -0 -1 -0 -0 -0 -0 0 -0 -1 -1 -1 -1 nan
nan -0 0 0 -0 -0 0 0 -0 -0 -0 -0 -0 -0 -1 -0 -0 -0 -0 -0 0 -1 -1 -1 -1 -0 0 1 0 -0 -0 -0 -0 0 0 0 -0 -0 0 -1 -0 -0 0 0 -0 -0 0 0 -0 -1 -1 -1 -1 nan
nan -0 -0 -0 0 0 0 0 0 -0 -0 -1 -0 -0 -0 -0 -0 0 0 -0 -1 -0 -0 -0 0 -1 -0 1 0 -0 -0 0 0 0 -0 0 -0 -0 -0 -0 -0 -0 0 0 -0 -0 0 1 -0 -0 -0 -0 -1 nan
nan -0 -0 -0 -0 0 0 0 -0 -0 -0 -0 -0 -0 -0 -0 0 1 -0 -1 -1 -1 -0 -0 -0 -0 0 0 0 -0 0 -0 0 0 0 -0 -0 0 0 -0 -1 0 1 1 0 -0 0 -0 0 -0 -1 -1 -1 nan
nan -0 -0 -0 -0 0 0 -0 -0 -0 -0 -0 -0 -0 -0 0 0 -0 -0 -1 -0 0 0 -0 -0 -0 -0 -0 -0 0 0 -0 0 0 0 -0 0 -0 -0 -1 1 -0 -0 -1 -1 -0 -0 -1 0 -0 -1 -1 -0 nan
nan -0 -0 -0 -0 0 -0 -0 -0 -0 -0 -0 -0 -0 -0 -0 -0 -0 -0 -0 -0 0 0 0 -0 -0 -0 -0 -0 -0 -0 -0 0 0 0 -0 -0 0 0 1 -0 -0 -0 -0 -1 -1 -1 -1 -0 0 -0 -0 -0 nan
nan -0 -0 -0 -0 -0 -0 -0 -0 0 -0 -0 -0 -0 -0 -0 -0 -0 0 0 0 -0 0 -0 0 -0 -0 -0 -0 -0 0 0 0 -0 -0 -0 0 0 0 -1 -0 -0 -1 0 -0 -0 -0 -0 -0 -0 -0 -0 -0 nan
nan -0 -0 0 0 0 -0 0 0 -0 0 0 0 -0 -1 -1 -0 -0 0 0 0 0 -0 -0 0 0 -0 0 -0 -0 -0 -0 -0 -0 -0 0 0 0 -1 -0 -0 -1 -1 -1 -1 -0 -0 -0 -0 -0 -0 -0 -0 nan
nan -0 0 0 -0 0 0 -0 0 -0 0 0 -0 0 0 -0 -0 -0 0 -0 -0 -0 0 -0 0 0 0 0 0 -0 -0 -0 -0 0 -0 0 -0 -1 -0 -0 -0 -0 -0 -1 -1 -0 -0 -0 -0 -0 -0 -0 -0 nan
nan -0 -0 -0 0 0 0 0 0 -0 -0 -0 0 0 -0 0 0 -0 0 -0 -0 -0 -0 0 0 -0 0 0 0 0 0 0 0 -0 -0 -0 -0 -1 -0 -0 -0 -0 -0 -0 -0 -0 -0 -0 -0 -0 -0 -0 -0 nan
nan -0 -0 0 0 -0 -0 0 -0 -0 -0 -0 -1 1 0 0 0 0 -0 -0 -0 0 0 0 0 0 0 0 0 0 -0 0 0 -0 0 0 -1 -0 -0 -0 -0 -0 -0 -0 -0 -0 -0 -0 -0 -0 -0 0 0 nan
nan -0 0 0 0 0 0 0 -0 -1 -0 1 -1 -0 0 -0 0 0 0 0 0 -0 -0 0 0 0 0 0 0 0 0 -0 0 -0 -0 -1 -1 -0 -0 -0 -0 -0 -0 -0 -0 0 -0 -0 0 -0 -0 0 0 nan
nan 1 -0 -1 -0 1 -0 -1 1 0 -0 -1 -1 -0 -0 -0 -0 -0 -0 -0 -0 -0 -0 -0 0 -0 -0 0 -0 0 -0 0 0 0 -0 -0 -1 -0 -0 -0 -0 -0 -0 -0 0 0 0 -0 -0 0 0 0 0 nan
nan 0 0 -0 -1 -0 -0 -0 -0 0 -1 -1 -0 -0 -0 -0 -0 -0 -0 -0 -0 -0 -0 0 0 0 -0 -0 -0 0 -0 -0 -0 -0 -0 -0 -0 -0 -0 -0 -0 0 -0 0 0 0 0 0 -0 -0 0 0 -0 nan
nan 0 0 0 0 0 0 0 0 -2 -2 -0 -0 0 -0 0 -0 -0 -0 -0 -0 0 0 0 0 -0 -0 -0 -0 -0 0 -0 -0 -0 -0 -0 -0 -0 -0 -0 0 0 0 0 0 0 0 -0 -0 -0 0 0 -0 nan
nan -0 0 0 0 -0 0 -0 -2 -2 -0 -0 -0 -0 0 -0 -0 -0 -0 -0 0 -0 0 -0 -0 -0 0 -0 -0 -0 -0 -0 -0 -0 -0 -0 -0 -0 0 -0 -0 -0 -0 -0 -0 -0 -0 0 0 -0 -1 -0 0 nan
nan 0 -0 0 0 -0 -3 -2 -1 -0 -0 -0 -0 -0 -0 -0 -0 -0 -0 -0 0 0 -0 -0 -0 -0 -0 -0 -0 -0 -0 -0 -0 -0 -0 0 0 0 0 -0 -0 0 -0 -0 -0 -0 -0 -0 -0 -0 -0 0 -0 nan
nan 0 0 0 -0 -1 -1 -1 -0 -0 -0 -0 -0 -0 -0 -0 -0 -0 -0 0 0 0 0 -0 -0 -0 -0 -0 -0 -0 -0 -0 -1 -0 0 1 0 0 0 0 0 -0 -0 -0 -0 -0 -0 -0 -1 -0 -0 -0 -0 nan
nan 0 0 0 -0 -1 -1 -0 -0 -0 -0 -0 -0 -0 -0 -0 -0 -0 0 0 -0 -0 -0 -0 -0 -1 -0 -0 -0 -0 -0 0 0 -1 -1 0 1 0 -0 -0 0 -0 0 0 -0 -0 -0 -0 0 -0 -0 -0 -0 nan
nan 0 0 -0 -2 -1 -0 -0 -0 -0 -0 -0 -0 0 -0 -0 0 0 0 -0 -1 -0 -0 -0 -0 0 0 0 -0 -0 -0 -0 -0 -0 -1 -0 0 0 0 0 0 -0 -0 -0 0 -0 -0 -0 0 0 -0 -0 -0 nan
nan 0 -0 -1 -1 -0 -0 -0 -0 -0 0 -0 -0 -0 -0 -0 -0 -0 -0 -1 -1 -1 -0 0 -0 -0 0 0 1 0 0 0 -0 -0 -1 -1 -0 -0 -0 -0 0 -0 -0 -0 -0 -0 -0 0 0 0 -0 -0 -0 nan
nan -0 -0 -0 -0 -0 -0 0 0 0 -0 -0 -0 -0 -0 -0 -0 0 -0 -1 -0 -0 -0 0 0 1 0 0 0 0 0 0 -0 -0 -0 -0 -0 -0 -0 -0 -0 -0 -0 -0 -0 -0 0 -0 -0 -0 -0 -0 -0 nan
nan -0 -1 -0 -0 -0 0 0 0 0 0 -0 -0 -0 -0 -0 -0 -0 -0 -0 -0 -0 0 0 0 0 0 -0 0 1 0 0 -0 -0 -0 -0 -0 -0 -0 -0 -0 -0 -0 -0 -0 -0 -0 -0 -0 0 0 0 0 nan
nan -2 -0 -0 0 0 -0 -0 0 -0 -0 -0 -0 -0 -0 0 -0 -0 -0 -0 -0 -0 0 0 -0 -0 -0 -0 0 0 -0 -0 0 0 -0 -0 -0 -0 -0 -0 -0 -0 -0 -0 0 -0 -0 -0 -0 0 0 0 0 nan
nan -0 -0 -0 0 0 -0 -0 -0 -0 -0 -0 -0 -0 0 0 -0 -0 -0 -0 -0 -0 0 0 0 -0 -0 -0 -0 0 0 -0 -0 -0 -0 -0 -0 -0 -0 -0 -0 -0 -0 0 0 0 -0 0 0 0 0 -0 0 nan
nan -0 -1 -0 0 0 0 -0 0 -0 -0 -0 -0 0 -0 -0 -0 -0 0 0 0 0 -0 -0 -0 0 0 -0 -0 -0 -0 -0 -0 -0 -0 -0 -0 -0 -0 -0 -0 -0 0 0 0 0 0 0 0 0 -0 -0 -0 nan
nan -0 -0 -1 -0 -0 0 -0 -0 -0 -0 -0 -0 -0 0 -0 -0 -0 0 0 0 0 0 0 0 0 0 0 -0 -0 -0 -0 -0 -0 -0 -0 -0 -0 -0 -0 -0 -0 -0 0 0 0 0 0 0 0 0 0 -0 nan
nan -0 -0 -0 0 -0 -0 -0 -0 -0 -0 0 0 -0 -0 -0 0 1 1 0 0 0 0 0 0 0 0 0 -0 -0 -0 -0 -0 -0 -0 -0 -0 -0 -0 -0 -0 -0 0 0 0 0 0 0 0 0 0 0 0 nan
nan -0 -0 -0 0 -0 -1 -0 -0 -0 0 0 0 -0 -1 0 1 1 0 0 0 0 0 0 0 0 0 -0 -0 -0 -0 -0 0 0 0 0 -0 0 0 -0 -0 -0 0 0 0 0 0 0 0 0 0 0 0 nan
nan -0 -0 -0 -0 -1 -0 1 0 0 -0 0 0 -0 -1 -0 1 0 0 0 0 0 0 0 0 0 0 -0 -0 -0 -0 -0 -0 -0 0 0 0 0 0 -0 -0 -0 -0 -0 0 0 0 0 0 -0 -0 -0 -0 nan
nan 0 0 -0 -0 -0 0 0 -0 -0 0 -0 -0 -0 -0 -0 -0 0 0 0 0 0 0 0 0 0 0 -0 -0 -0 -0 -0 -0 -0 -0 -0 -0 -0 -0 -0 -0 -0 -0 -0 -0 -0 0 0 0 0 -0 -0 -0 nan
nan nan nan nan nan nan nan nan nan nan nan nan nan nan nan nan nan nan nan nan nan nan nan nan nan nan nan nan nan nan nan nan nan nan nan nan nan nan nan nan nan nan nan nan nan nan nan nan nan nan nan nan nan nan
Wind_Speed
42 41 43 39 36 37 41 42 38 36 35 35 34 34 35 36 36 37 40 33 36 18 25 16 29 22 16 16 8 4 7 5 4 6 5 4 4 5 5 3 9 10 9 8 11 6 6 6 3 4 7 9 16 19
40 36 33 30 29 26 28 33 39 38 37 36 36 37 37 38 40 39 40 38 34 25 15 25 34 24 25 25 16 9 4 7 11 7 6 4 4 2 8 6 11 7 7 6 7 7 3 3 3 8 10 12 15 17
36 34 38 34 30 25 19 26 32 34 34 34 34 35 37 39 42 44 46 39 35 33 18 22 23 25 29 28 22 8 8 8 7 10 2 4 5 6 6 9 9 8 9 7 5 8 10 8 2 6 9 9 11 14
38 31 23 18 19 21 24 21 25 28 28 29 29 30 30 31 38 45 47 40 37 9 5 10 17 27 28 28 27 25 13 11 7 9 8 4 4 6 6 8 8 9 7 10 12 13 12 13 2 8 10 10 12 13
15 14 15 15 14 12 16 26 27 27 28 27 25 24 26 26 31 38 41 41 41 26 4 7 9 22 22 26 30 24 22 13 8 4 2 3 6 4 4 3 8 12 11 8 8 5 1 6 9 9 13 12 13 14
11 16 12 13 10 13 14 13 15 23 26 27 25 26 28 26 33 39 11 31 44 26 5 5 4 8 23 19 22 25 20 15 12 5 3 6 10 3 4 8 5 4 2 5 4 6 8 12 11 7 10 10 10 10
15 10 11 13 11 14 16 16 18 19 21 21 21 23 32 31 36 21 7 14 40 19 3 1 3 4 13 16 15 17 18 15 10 3 5 3 4 9 3 6 5 2 5 6 5 8 7 8 4 11 12 11 9 6
7 8 11 8 5 15 14 15 18 21 22 20 26 25 28 33 30 21 6 13 33 14 6 2 2 4 11 9 9 12 9 10 4 3 4 5 8 3 2 4 3 5 8 4 7 7 9 12 10 10 10 8 5 5
15 8 15 17 9 7 12 22 20 21 27 26 26 27 35 28 18 19 9 31 30 6 6 4 5 4 11 9 9 9 8 3 6 4 3 8 3 2 5 3 4 7 7 11 12 9 3 1 5 7 6 6 2 4
18 13 16 20 19 17 18 25 26 29 30 33 33 13 8 16 27 33 14 6 6 4 4 3 4 4 10 10 10 7 6 4 3 1 6 1 3 9 5 4 4 6 7 8 9 3 7 4 4 5 4 4 3 3
19 14 13 17 25 29 26 28 31 37 37 26 5 6 39 32 15 4 4 3 4 3 6 5 10 5 6 3 4 7 4 4 4 2 3 4 3 3 5 5 5 5 4 5 4 3 4 4 4 5 8 6 7 9
19 19 18 15 26 31 31 41 45 33 16 12 23 31 21 6 4 3 4 4 4 4 5 4 6 5 6 5 3 5 4 4 3 5 4 5 4 4 4 6 7 8 8 7 6 7 7 9 9 10 11 11 13 15
15 14 23 27 22 27 28 23 25 34 40 29 9 5 1 4 3 2 6 3 4 2 2 4 3 9 6 9 3 4 4 2 8 2 2 3 5 5 5 5 7 8 8 10 11 11 12 13 13 14 17 17 19 22
13 17 22 26 27 37 36 34 33 17 2 7 5 5 4 3 4 3 2 2 3 1 2 2 4 1 0 2 1 3 2 3 4 4 3 4 6 6 6 7 8 11 12 14 15 17 20 21 21 21 21 21 21 22
10 11 14 21 21 18 11 7 4 2 6 7 6 5 5 4 4 4 3 1 3 4 3 3 4 1 2 4 3 3 3 3 3 3 3 8 8 9 10 11 12 14 15 17 19 21 22 22 23 23 22 21 21 21
6 5 9 13 9 11 9 7 10 9 7 7 8 3 5 2 6 6 7 4 6 4 1 2 2 3 5 3 3 3 2 3 3 4 11 11 11 12 13 14 16 17 18 19 20 21 22 22 22 21 19 18 17 16
6 6 9 15 16 5 8 7 7 9 6 5 5 9 5 4 4 6 7 9 7 5 2 2 4 5 1 3 3 4 3 6 14 14 12 13 14 15 17 18 18 18 19 19 18 18 18 17 16 15 16 14 13 13
9 8 6 3 3 9 19 10 8 8 8 9 4 8 9 8 9 8 8 10 4 3 3 4 3 4 4 2 3 5 12 15 15 15 15 16 17 17 16 17 16 15 15 15 14 14 12 11 11 11 10 9 9 9
7 6 6 4 1 4 6 8 8 6 9 6 8 7 6 7 11 10 9 12 14 11 7 5 5 4 3 5 12 15 14 15 17 16 17 17 16 15 15 14 13 12 12 11 9 9 9 9 9 7 6 6 6 6
8 7 6 3 2 6 6 6 6 8 5 5 7 14 8 7 8 11 14 14 14 7 7 5 4 8 11 13 13 15 16 17 18 17 14 13 13 12 12 11 11 10 10 9 9 9 7 7 6 6 5 5 5 6
12 10 11 13 17 13 8 5 7 7 8 6 6 8 8 16 18 15 14 10 13 7 5 8 12 15 16 17 16 16 15 12 10 10 12 11 10 10 10 10 8 8 7 7 6 6 6 6 5 5 4 5 6 6
12 10 8 11 8 7 8 9 9 9 6 9 5 5 6 9 11 13 14 14 8 11 7 10 13 15 17 17 15 14 13 13 14 14 14 12 10 9 8 7 6 6 6 5 5 5 4 4 4 5 5 6 6 6
7 7 7 6 7 6 5 3 4 3 3 3 3 3 4 4 5 6 7 8 7 11 10 13 16 17 18 17 17 16 14 14 14 13 12 11 10 9 7 6 5 5 5 4 4 3 3 3 3 3 3 4 4 4
5 5 5 5 6 5 5 3 4 4 4 3 3 3 3 4 4 7 4 5 5 7 9 11 13 16 17 16 15 15 14 12 12 12 10 7 6 6 5 5 4 4 3 3 3 2 2 2 2 2 2 2 2 1
4 8 5 6 5 4 4 3 2 3 3 3 3 3 3 3 3 3 3 3 3 5 7 8 10 11 13 13 12 12 11 9 8 8 7 6 4 3 3 3 2 1 1 2 1 1 1 1 1 1 2 2 3 3
7 9 5 3 3 3 2 4 3 3 3 3 4 3 2 3 4 4 3 7 6 7 9 8 9 9 9 9 8 7 7 6 5 3 2 2 2 1 0 0 1 3 1 1 1 1 2 2 3 3 4 4 5 4
4 5 6 7 3 6 6 7 7 6 4 3 2 2 2 4 3 3 6 8 8 11 11 9 8 7 9 9 8 6 5 4 4 3 3 2 2 2 1 1 1 2 1 1 1 1 2 2 3 3 4 5 5 5
5 6 4 7 8 10 4 4 4 3 3 2 3 4 3 3 3 4 6 12 11 10 9 10 11 9 9 8 8 6 6 5 4 4 4 5 4 4 3 3 3 3 3 3 3 3 3 4 4 5 5 6 7 7
7 4 6 6 7 9 10 4 3 3 3 2 3 3 4 4 7 11 16 13 12 11 11 10 10 9 8 6 5 4 3 3 4 4 4 3 4 4 4 4 5 5 6 5 5 4 5 5 5 6 7 7 8 9
5 6 6 6 5 6 8 6 5 6 8 9 10 18 17 14 17 17 15 14 12 10 10 9 8 8 6 5 3 2 2 2 3 3 2 3 3 4 4 5 6 7 6 6 6 7 7 7 7 7 7 8 8 9
4 5 7 8 6 11 15 19 21 19 16 18 19 21 17 11 15 11 10 9 9 9 9 7 6 5 3 2 2 1 2 2 2 3 3 3 4 5 5 6 7 6 6 6 6 6 6 6 7 7 7 8 8 9
5 5 7 5 8 9 8 6 8 9 7 8 7 10 7 5 4 6 10 11 10 8 6 5 4 2 2 1 1 1 1 2 2 3 4 4 5 5 6 6 6 5 5 6 6 5 6 6 6 7 7 8 9 9
16 19 17 11 6 7 6 6 4 5 4 3 3 3 3 3 4 6 11 9 9 8 6 4 2 1 1 2 2 2 2 3 5 5 6 5 5 5 5 5 5 5 5 5 6 6 7 7 8 8 9 9 10 10
Wind_Direction
291 287 289 289 279 269 263 245 239 239 237 238 237 239 233 229 223 220 227 221 217 234 252 238 234 231 226 229 231 208 151 170 170 207 210 184 231 214 251 174 165 180 194 198 224 229 240 221 193 220 11 333 342 330
296 298 293 285 280 278 261 238 233 236 238 241 240 241 237 229 224 216 225 221 218 223 255 242 241 233 228 233 207 225 221 145 182 208 214 211 207 213 222 226 196 211 215 198 208 213 96 140 30 10 5 351 344 333
295 298 295 285 273 261 261 236 231 233 236 239 238 236 228 227 218 216 214 218 216 228 247 239 236 235 230 227 218 219 239 209 202 213 231 219 229 195 206 232 245 232 239 237 214 228 245 293 81 17 358 350 334 335
293 292 290 286 285 257 241 237 226 226 226 228 228 226 218 222 219 212 207 213 211 178 228 247 231 227 230 222 223 223 228 215 204 219 228 219 237 214 229 247 230 242 197 233 249 254 267 264 10 350 344 343 334 325
293 301 276 283 279 261 240 233 230 225 221 227 228 217 208 202 191 193 205 213 211 193 198 193 220 223 215 216 217 222 221 230 199 197 177 221 250 238 220 250 246 232 245 236 259 76 250 290 324 324 330 334 332 328
313 308 295 278 269 247 230 219 214 215 219 214 212 207 195 186 185 164 170 191 187 189 184 180 184 176 204 211 215 219 227 225 209 194 169 219 219 234 255 243 228 103 52 26 7 323 297 290 301 333 331 334 328 331
322 336 294 287 252 234 223 215 204 201 195 193 179 176 177 171 172 156 164 180 177 186 94 121 167 136 189 192 206 213 229 242 242 211 185 232 243 213 203 238 103 347 349 354 357 330 311 54 332 318 324 330 331 341
4 1 360 360 311 221 206 196 194 194 186 177 170 170 167 170 178 184 175 156 168 161 166 205 141 162 166 182 189 200 211 210 212 221 215 224 238 234 224 64 18 350 327 288 344 334 301 293 277 294 313 323 338 2
26 55 18 43 42 147 172 176 166 162 164 164 159 156 152 149 164 188 161 164 162 139 166 187 175 174 173 175 181 175 174 188 201 194 226 167 158 216 53 48 13 348 342 316 320 319 331 333 297 309 322 326 334 18
23 65 54 75 77 108 137 153 159 151 146 149 150 142 109 137 132 132 126 125 149 164 182 203 154 164 172 172 181 160 175 196 221 199 125 209 86 96 57 34 360 343 332 330 325 297 333 349 3 11 6 1 13 55
40 71 66 63 83 92 127 143 142 147 148 134 114 93 128 138 134 110 123 149 119 165 199 197 193 147 181 158 150 200 174 181 219 144 210 161 140 77 28 23 15 12 10 16 24 20 25 39 55 63 62 68 89 93
42 67 89 85 80 104 96 116 133 137 139 126 127 126 117 116 105 127 127 132 190 179 157 175 183 181 162 164 191 174 193 187 198 140 187 167 86 57 39 33 33 36 43 50 63 72 75 79 85 88 90 94 101 108
57 77 68 83 98 113 108 112 121 119 114 114 109 91 143 25 95 188 160 136 141 89 97 158 155 164 178 198 196 187 188 113 132 123 87 58 84 61 54 53 57 63 72 72 76 87 89 92 98 102 106 109 113 112
76 69 87 95 113 118 113 115 131 140 140 67 49 59 28 69 71 67 72 77 42 330 354 326 120 122 61 126 275 106 77 157 144 162 102 92 85 84 84 89 92 83 90 92 95 101 102 102 103 104 104 107 108 106
92 85 90 114 143 159 160 166 171 178 74 63 36 50 58 47 46 22 356 310 354 309 301 140 80 205 58 88 43 123 143 105 29 86 96 111 106 104 97 96 99 104 103 101 103 103 103 104 103 103 104 104 104 106
118 88 64 75 103 120 129 152 137 88 58 57 51 79 23 74 43 30 21 22 356 347 54 76 119 77 53 58 84 52 153 78 105 108 117 119 110 106 107 108 107 106 105 104 103 104 105 104 103 102 104 101 102 103
134 124 98 69 46 68 143 122 70 59 66 57 57 37 50 59 29 5 355 346 353 347 50 17 52 47 98 71 73 22 48 105 117 109 110 116 116 118 118 115 112 111 108 105 105 104 102 103 105 104 94 92 94 93
131 133 142 143 92 59 66 54 76 72 72 52 71 37 53 50 27 28 7 3 14 67 45 62 69 51 41 56 82 112 99 96 101 105 104 110 118 118 117 115 114 112 110 110 108 106 101 93 87 85 89 91 90 86
110 113 144 165 104 78 63 47 51 84 63 59 45 43 60 49 33 37 45 50 66 76 82 56 56 47 55 72 113 115 113 112 107 100 103 113 117 118 117 116 114 112 111 108 109 104 104 108 101 99 98 101 98 90
103 103 123 136 97 82 74 54 64 81 66 71 55 49 57 34 32 49 53 51 55 61 55 45 44 44 82 88 107 112 115 118 116 110 101 104 111 117 113 111 110 108 105 104 105 97 91 92 96 97 96 98 95 85
113 107 109 100 63 68 79 76 69 97 118 94 98 64 64 52 50 49 41 44 53 37 64 66 79 88 104 105 108 114 117 119 117 120 126 118 116 114 113 110 110 111 106 102 97 99 98 93 95 93 89 92 91 92
100 102 78 55 75 72 67 39 99 119 90 111 95 74 69 58 51 45 53 54 60 38 48 84 90 96 98 100 109 116 119 121 118 118 117 113 106 106 105 103 100 97 93 91 99 104 108 115 110 101 95 92 89 89
78 71 63 59 79 71 107 96 76 67 102 100 96 69 54 58 54 49 70 47 63 45 79 90 99 104 105 109 113 113 115 118 115 114 114 113 109 104 99 97 93 88 84 81 89 101 114 122 109 94 82 77 80 70
74 62 51 61 73 99 120 67 75 86 89 74 69 77 57 58 71 71 67 58 46 67 85 94 101 104 103 104 98 102 103 106 109 109 103 97 94 90 87 78 71 72 79 68 67 69 71 69 71 55 38 26 13 2
85 17 36 64 67 102 93 90 77 84 87 72 87 76 69 46 75 73 83 100 82 89 99 106 109 109 110 107 107 109 108 100 98 94 89 84 73 61 53 40 33 26 41 45 34 25 18 21 7 350 330 315 313 312
74 21 33 30 51 81 87 105 97 99 97 78 64 80 67 76 75 86 98 140 121 111 114 113 115 115 109 111 113 111 108 103 94 91 90 77 73 95 129 343 347 328 301 284 266 274 281 282 283 288 295 299 299 297
83 55 53 40 63 88 97 76 69 71 73 76 93 88 79 76 92 98 135 136 140 142 137 131 124 128 128 125 126 129 130 120 105 98 81 69 58 55 70 122 222 294 302 308 294 275 274 286 290 295 303 305 303 301
74 41 72 25 65 44 82 63 51 62 79 59 95 54 74 65 104 131 139 148 148 148 146 142 136 134 137 137 133 124 117 105 78 54 39 30 23 23 31 28 16 12 356 331 309 304 308 310 303 302 305 308 309 312
60 62 82 53 61 54 41 43 63 58 31 43 97 101 103 86 117 124 134 137 135 136 139 139 137 135 133 126 121 121 113 53 32 8 6 356 339 339 346 352 351 345 340 335 336 331 322 318 311 306 307 308 310 314
53 40 89 61 53 47 31 33 65 80 76 90 102 113 99 100 113 125 129 131 133 141 144 142 138 127 118 100 85 69 20 359 352 352 341 323 309 311 317 324 329 330 327 324 322 322 326 328 324 323 320 320 321 323
76 75 76 63 78 89 92 84 85 85 91 91 100 104 110 107 109 119 135 140 140 140 141 138 130 121 103 61 47 14 349 343 341 336 329 320 315 313 316 320 324 325 326 325 324 323 322 324 324 323 323 323 323 323
39 71 118 108 130 156 120 100 83 87 83 89 78 107 103 103 102 150 153 149 147 148 144 135 129 113 50 42 28 27 22 7 350 342 335 329 326 325 325 327 330 333 332 329 329 327 326 326 324 323 323 324 325 325
95 95 101 106 123 159 165 128 101 105 79 87 82 100 100 101 127 157 168 166 160 156 152 145 134 97 61 36 25 23 7 353 349 349 349 345 341 337 337 339 339 338 341 339 335 332 329 327 326 325 326 326 326 326
Height
1353 1349 1345 1341 1340 1339 1340 1346 1353 1359 1364 1369 1375 1380 1385 1392 1398 1406 1409 1415 1420 1420 1420 1420 1421 1423 1425 1428 1429 1429 1433 1433 1437 1433 1427 1424 1422 1417 1416 1413 1420 1425 1425 1425 1423 1427 1426 1409 1411 1412 1414 1414 1415 1412
1340 1335 1332 1329 1327 1327 1325 1330 1338 1346 1352 1357 1363 1368 1373 1380 1388 1397 1401 1408 1414 1417 1414 1412 1415 1418 1419 1420 1424 1425 1420 1422 1425 1424 1421 1419 1420 1418 1412 1411 1412 1415 1409 1408 1410 1409 1410 1412 1412 1415 1416 1415 1414 1414
1329 1324 1320 1317 1316 1317 1317 1321 1327 1334 1340 1345 1350 1356 1361 1367 1376 1384 1391 1400 1408 1413 1409 1409 1408 1408 1412 1415 1419 1421 1420 1420 1420 1420 1422 1419 1419 1414 1413 1409 1405 1406 1407 1408 1410 1407 1408 1410 1413 1418 1419 1418 1417 1414
1318 1313 1310 1307 1305 1306 1309 1313 1317 1323 1329 1335 1340 1345 1350 1357 1362 1373 1382 1391 1401 1400 1402 1397 1399 1400 1403 1408 1412 1415 1417 1417 1419 1421 1420 1418 1417 1413 1409 1407 1406 1404 1404 1407 1406 1407 1408 1410 1415 1417 1418 1417 1416 1414
1308 1305 1303 1302 1301 1300 1301 1305 1310 1315 1321 1327 1332 1337 1344 1350 1358 1370 1378 1384 1391 1397 1391 1393 1393 1394 1398 1401 1406 1410 1412 1415 1416 1418 1420 1420 1415 1415 1411 1411 1404 1403 1404 1404 1403 1410 1413 1413 1415 1414 1414 1412 1412 1410
1304 1301 1297 1296 1295 1295 1297 1299 1302 1306 1313 1319 1324 1332 1340 1346 1356 1363 1373 1377 1381 1387 1393 1390 1389 1388 1393 1398 1403 1406 1409 1411 1414 1412 1415 1415 1414 1416 1408 1399 1398 1408 1411 1412 1411 1415 1415 1415 1414 1413 1412 1410 1408 1406
1301 1295 1289 1288 1288 1289 1291 1295 1299 1304 1310 1315 1321 1327 1336 1345 1351 1360 1365 1366 1376 1383 1387 1388 1386 1389 1392 1397 1400 1403 1407 1409 1410 1410 1411 1412 1411 1409 1408 1402 1410 1412 1412 1412 1412 1412 1412 1412 1413 1412 1410 1409 1406 1405
1300 1295 1289 1284 1282 1281 1286 1290 1295 1301 1308 1314 1321 1329 1336 1346 1355 1360 1363 1365 1375 1383 1388 1386 1386 1390 1391 1393 1397 1400 1403 1406 1407 1408 1409 1407 1407 1407 1401 1412 1412 1412 1412 1413 1413 1413 1414 1413 1412 1411 1410 1408 1408 1405
1300 1294 1289 1283 1277 1277 1280 1287 1294 1300 1307 1315 1322 1329 1339 1346 1353 1357 1361 1368 1374 1381 1382 1383 1380 1382 1387 1390 1393 1398 1401 1403 1404 1403 1401 1400 1402 1400 1414 1415 1415 1415 1415 1414 1412 1412 1412 1411 1410 1409 1407 1407 1408 1404
1300 1295 1292 1287 1281 1278 1280 1287 1295 1303 1309 1316 1323 1331 1335 1347 1350 1357 1366 1370 1374 1377 1379 1376 1378 1381 1385 1387 1389 1393 1395 1396 1395 1397 1397 1397 1405 1416 1418 1418 1418 1416 1415 1414 1412 1410 1411 1410 1409 1407 1406 1406 1404 1404
1304 1300 1297 1293 1289 1283 1285 1292 1297 1304 1312 1319 1325 1328 1339 1349 1356 1360 1365 1367 1373 1376 1376 1375 1377 1379 1384 1383 1385 1389 1390 1391 1387 1393 1392 1396 1402 1416 1419 1419 1418 1416 1415 1414 1413 1412 1411 1409 1409 1409 1406 1407 1407 1406
1309 1305 1303 1301 1299 1299 1294 1300 1304 1312 1317 1321 1324 1334 1344 1350 1354 1358 1361 1368 1367 1366 1371 1372 1375 1378 1380 1382 1383 1385 1384 1387 1378 1392 1389 1391 1415 1419 1420 1419 1417 1415 1414 1414 1413 1412 1411 1410 1410 1410 1410 1411 1409 1409
1314 1312 1310 1309 1308 1309 1311 1313 1316 1319 1324 1330 1335 1342 1349 1355 1356 1352 1354 1358 1362 1368 1370 1371 1373 1375 1379 1380 1379 1378 1375 1382 1391 1390 1395 1409 1418 1420 1420 1420 1419 1418 1417 1416 1415 1414 1413 1412 1412 1413 1413 1414 1414 1414
1319 1318 1318 1318 1318 1319 1321 1324 1326 1327 1329 1332 1340 1351 1355 1359 1364 1366 1366 1366 1370 1370 1370 1370 1371 1372 1375 1375 1376 1377 1390 1388 1388 1390 1403 1416 1421 1421 1422 1422 1422 1421 1421 1421 1419 1418 1417 1418 1419 1419 1419 1420 1420 1419
1323 1323 1323 1325 1326 1325 1326 1328 1328 1327 1331 1342 1349 1359 1365 1371 1371 1371 1371 1371 1371 1370 1370 1369 1370 1372 1375 1377 1382 1385 1387 1389 1394 1399 1414 1421 1423 1424 1425 1425 1425 1425 1425 1425 1424 1424 1423 1424 1425 1425 1425 1426 1426 1427
1327 1326 1325 1326 1327 1328 1328 1328 1329 1331 1343 1356 1367 1370 1373 1371 1373 1373 1373 1372 1371 1370 1369 1370 1370 1371 1380 1383 1386 1393 1384 1390 1410 1416 1421 1424 1425 1427 1427 1428 1429 1429 1429 1429 1429 1429 1429 1429 1430 1431 1432 1432 1432 1433
1328 1328 1328 1328 1326 1326 1327 1329 1334 1346 1360 1370 1377 1379 1378 1379 1379 1378 1376 1374 1372 1371 1371 1371 1373 1385 1387 1388 1396 1403 1405 1412 1418 1422 1424 1427 1429 1430 1431 1432 1433 1434 1434 1434 1434 1434 1435 1436 1436 1436 1436 1437 1437 1437
1328 1329 1330 1330 1330 1331 1329 1333 1343 1359 1373 1379 1380 1382 1381 1381 1381 1380 1379 1376 1375 1375 1377 1384 1387 1391 1395 1397 1404 1415 1418 1420 1423 1426 1428 1430 1432 1433 1435 1436 1437 1437 1437 1437 1438 1439 1439 1440 1441 1441 1441 1441 1441 1440
1330 1330 1330 1330 1330 1331 1338 1348 1354 1369 1381 1383 1384 1384 1384 1385 1385 1383 1382 1380 1380 1380 1383 1391 1397 1403 1409 1412 1414 1419 1422 1425 1427 1430 1432 1434 1435 1437 1438 1439 1439 1440 1440 1441 1441 1441 1441 1442 1443 1444 1444 1444 1444 1444
1331 1331 1331 1332 1332 1335 1348 1360 1364 1373 1383 1388 1388 1388 1388 1389 1388 1387 1386 1386 1385 1387 1398 1407 1415 1418 1418 1419 1421 1423 1426 1429 1431 1434 1436 1438 1439 1440 1441 1442 1442 1443 1443 1443 1444 1444 1445 1445 1445 1445 1445 1445 1445 1444
1334 1334 1333 1333 1334 1343 1357 1365 1372 1380 1386 1390 1392 1392 1394 1394 1392 1392 1391 1392 1393 1407 1417 1423 1423 1423 1423 1425 1427 1429 1432 1434 1436 1438 1439 1441 1442 1442 1443 1444 1444 1445 1445 1446 1446 1446 1446 1446 1446 1446 1446 1445 1444 1444
1336 1336 1337 1337 1344 1355 1366 1371 1375 1380 1386 1392 1393 1395 1397 1399 1400 1402 1405 1406 1418 1427 1427 1428 1429 1430 1430 1431 1433 1434 1436 1437 1438 1439 1441 1443 1445 1445 1445 1446 1446 1446 1446 1447 1447 1447 1447 1447 1446 1446 1446 1446 1445 1445
1338 1338 1340 1345 1352 1364 1379 1377 1379 1383 1386 1392 1395 1398 1402 1405 1409 1411 1418 1427 1432 1434 1434 1433 1433 1434 1434 1436 1437 1439 1440 1441 1442 1443 1444 1445 1446 1446 1447 1447 1447 1448 1448 1447 1447 1447 1446 1446 1446 1446 1446 1446 1446 1445
1340 1341 1346 1351 1359 1371 1376 1379 1382 1386 1389 1393 1396 1402 1407 1410 1413 1420 1430 1436 1440 1439 1439 1439 1439 1439 1440 1442 1442 1443 1444 1445 1446 1447 1448 1449 1449 1449 1449 1448 1448 1448 1448 1447 1447 1446 1446 1446 1446 1446 1446 1446 1445 1445
1344 1357 1358 1361 1365 1369 1376 1381 1385 1387 1392 1396 1400 1406 1411 1412 1417 1427 1435 1441 1442 1441 1441 1442 1442 1443 1444 1445 1447 1447 1448 1449 1449 1449 1450 1450 1450 1450 1450 1450 1449 1448 1448 1448 1448 1447 1447 1447 1446 1446 1446 1445 1445 1444
1357 1367 1366 1367 1370 1369 1376 1380 1384 1390 1394 1401 1408 1412 1413 1415 1422 1432 1437 1441 1443 1443 1444 1445 1446 1447 1448 1449 1449 1450 1450 1451 1451 1451 1452 1451 1451 1451 1451 1450 1450 1449 1448 1448 1448 1447 1447 1447 1446 1446 1445 1445 1444 1443
1363 1371 1373 1375 1376 1376 1381 1387 1390 1393 1398 1404 1410 1412 1414 1422 1430 1438 1440 1441 1444 1444 1445 1446 1447 1449 1449 1450 1450 1451 1452 1452 1452 1452 1452 1452 1451 1450 1450 1450 1449 1449 1448 1447 1447 1447 1446 1446 1445 1445 1444 1443 1442 1441
1372 1375 1375 1381 1382 1385 1389 1395 1400 1405 1408 1412 1412 1419 1422 1427 1434 1439 1440 1443 1444 1446 1447 1448 1449 1450 1451 1451 1452 1452 1453 1453 1453 1452 1452 1452 1451 1450 1450 1449 1449 1448 1447 1446 1446 1445 1445 1444 1444 1443 1442 1441 1440 1439
1377 1380 1382 1388 1390 1396 1403 1407 1410 1412 1414 1414 1415 1422 1429 1434 1436 1439 1442 1444 1446 1448 1449 1450 1451 1452 1453 1453 1453 1453 1454 1453 1453 1453 1453 1452 1452 1451 1450 1449 1448 1447 1446 1446 1445 1444 1443 1443 1442 1441 1440 1439 1438 1436
1383 1384 1388 1396 1403 1410 1414 1414 1415 1415 1415 1416 1418 1425 1430 1436 1439 1443 1445 1447 1449 1450 1451 1452 1453 1453 1454 1454 1454 1454 1454 1454 1453 1453 1452 1452 1451 1450 1449 1448 1447 1446 1445 1444 1443 1443 1442 1441 1440 1439 1438 1437 1435 1434
1386 1389 1395 1405 1415 1422 1420 1421 1420 1421 1421 1424 1428 1430 1434 1440 1445 1447 1448 1449 1450 1452 1453 1454 1454 1455 1455 1455 1455 1455 1454 1454 1453 1452 1452 1451 1450 1449 1448 1447 1446 1445 1444 1443 1442 1441 1440 1439 1438 1437 1436 1435 1433 1432
1390 1393 1399 1409 1422 1423 1422 1424 1425 1428 1431 1433 1435 1437 1440 1443 1446 1448 1450 1451 1452 1453 1454 1455 1455 1455 1455 1455 1455 1454 1454 1453 1453 1452 1451 1450 1448 1447 1446 1445 1445 1444 1443 1442 1441 1440 1439 1438 1437 1436 1435 1433 1431 1429
1399 1400 1403 1409 1417 1420 1422 1423 1426 1432 1434 1437 1439 1439 1440 1443 1446 1448 1450 1451 1452 1453 1454 1455 1455 1455 1455 1455 1455 1454 1454 1453 1452 1451 1449 1448 1447 1446 1445 1444 1444 1443 1442 1441 1440 1439 1438 1437 1435 1434 1432 1431 1429 1427